User: anonymous   Login
Location: Beaver Brook Station
(42.3793°N, 71.2203°W)
Time: 12:57:30
(UTC+00:00)
Language:

Cosmos 1939 Rocket - Orbit

View from above orbital plane
View from above orbital plane
View from above satellite
View from above satellite

Ground track
Ground track

The orbit data is extracted from the following two-line orbital elements,

1 19046U 88032B   21016.80223119  .00000495  00000-0  40850-4 0  9996
2 19046  97.3902  34.2771 0036744 198.7257 161.2620 15.02824341769009
Epoch (UTC): 16 January 2021 19:15:12
Eccentricity: 0.0036744
inclination: 97.3902°
perigee height: 533 km
apogee height: 583 km
right ascension of ascending node: 34.2771°
argument of perigee: 198.7257°
revolutions per day: 15.02824341
mean anomaly at epoch: 161.2620°
orbit number at epoch: 76900

The dashed part of the orbit path shows where the satellite is in the earth's shadow,  

DLR